Home > Time Zones > World Clock > Weather > Qatar > Doha > Past weeks

Flag for Qatar Weather past 2 weeks in Doha, Qatar

Now
106 °F

Passing clouds.


Feels Like: 119 °F
Forecast: 85 / 109 °F
Wind: 5 mph from East

Location: Doha International Airport

Current Time: Aug 31, 2015 at 2:33:30 PM

Latest Report: Aug 31, 2015 at 2:00 PM


Visibility: N/A

Pressure: 29.59 "Hg

Humidity: 36%

Dew point: 73 °F

Historic Weather in Doha — Graph

°F

Doha temperature yesterday

Maximum temperature yesterday: 111 °F (at 1:00 PM)
Minimum temperature yesterday: 91 °F (at 3:00 AM)
Average temperature yesterday: 98 °F

Past Weeks' High & Low Weather Summary

 TemperatureHumidityPressure
High117 °F (Aug 25, 12:00 PM)84% (Aug 21, 6:00 AM)29.65 "Hg (Aug 21, 6:00 AM)
Low90 °F (Aug 18, 4:00 AM)16% (Aug 25, 12:00 PM)29.50 "Hg (Aug 17, 4:00 PM)
Average98 °F59%29.56 "Hg
* Reported Aug 16 1:00 PM — Aug 31 1:00 PM, Doha, Weather by CustomWeather, © 2015

Note: Actual official high and low records may vary slightly from our data, if they occured in-between our weather recording intervals... More about our weather records

Advertising

Doha weather history for previous 24 hours

 ConditionsComfort  
Time TempWeatherWind HumidityBarometerVisibility
1:00 PM
Mon, Aug 31
104 °FPassing clouds.7 mph45%29.59 "HgN/A
12:00 PM102 °FClear.6 mph51%29.62 "Hg6 mi
11:00 AM102 °FClear.6 mph48%29.62 "Hg6 mi
10:00 AM100 °FClear.8 mph47%29.65 "Hg6 mi
9:00 AM100 °FClear.3 mph60%29.65 "Hg5 mi
8:00 AM99 °FClear.3 mph57%29.65 "Hg5 mi
7:00 AM97 °FClear.2 mph63%29.62 "Hg5 mi
6:00 AM91 °FClear.No wind75%29.62 "Hg4 mi
5:00 AM93 °FClear.3 mph71%29.59 "Hg4 mi
3:00 AM93 °FClear.3 mph71%29.56 "Hg4 mi
2:00 AM93 °FClear.3 mph71%29.56 "Hg4 mi
12:00 AM93 °FClear.5 mph71%29.59 "Hg4 mi
11:00 PM
Sun, Aug 30
93 °FClear.5 mph75%29.59 "Hg4 mi
10:00 PM95 °FClear.7 mph71%29.59 "Hg4 mi
9:00 PM95 °FHaze.7 mph71%29.59 "Hg3 mi
8:00 PM95 °FHaze.7 mph71%29.59 "Hg3 mi
7:00 PM97 °FHaze.6 mph67%29.56 "Hg3 mi
6:00 PM97 °FDuststorm.8 mph71%29.53 "Hg2 mi
5:00 PM99 °FDuststorm.9 mph67%29.53 "Hg2 mi
4:00 PM99 °FDuststorm.14 mph53%29.56 "Hg3 mi
3:00 PM100 °FClear.14 mph57%29.56 "Hg4 mi
2:00 PM109 °FClear.14 mph30%29.56 "Hg4 mi
Weather by CustomWeather, © 2015

See weather overviewHow to use our weather pages